Vertical_Velocity
-2 -0 -0 -0 -2 -2 -2 1 1 -1 2 14 0 1 -1 1 -1 1 -6 -0 2 1 -10 1 2 4 -4 2 -1 0 -3 -1 -0 -1 -1 -2 -0 -3 -1 -2 -4 -5 -3 -1 2 2 -8 -1 1 -2 -8 -2 -0 0
4 6 2 -0 2 -1 -2 2 0 -8 -6 -1 2 2 -1 -2 -1 4 1 2 -1 3 -14 0 1 1 -4 5 3 0 1 -1 -2 -3 0 -0 0 1 -2 -2 -0 -1 -9 -7 -7 -12 -3 -1 -1 2 1 0 -1 1
2 5 4 4 -2 -3 -1 -1 3 -4 -1 -0 4 4 -2 -2 1 5 -1 8 4 4 -14 15 -15 11 -1 -10 19 -1 1 4 -0 1 -4 -1 -1 -2 -1 -3 0 -1 1 0 0 -5 -2 -3 -1 0 -1 -0 -0 0
-2 -3 -1 0 -1 -2 -3 -0 6 6 -4 -6 0 7 -1 -3 -3 9 9 8 6 3 6 -23 7 -1 12 11 7 -19 -2 -0 12 -1 -1 -1 -1 -0 -1 -4 -0 -5 -0 -1 -3 -3 -4 0 -0 3 -1 0 -1 -0
-0 -2 2 3 -3 4 1 5 2 2 0 -2 -4 3 -3 -0 2 1 1 -1 5 6 -1 -11 -7 -19 -9 2 -7 7 3 5 10 -1 -0 -1 -0 -1 -0 -1 -0 -2 -4 -3 -4 -0 2 -7 1 1 1 1 -1 0
4 7 -1 0 1 0 3 1 2 1 -2 -0 6 4 -2 4 5 -0 -4 -0 2 1 12 -1 3 -12 2 4 -7 8 -5 9 9 -3 -1 -0 1 -2 -0 -0 -4 3 1 2 -3 -1 1 -7 -2 1 0 2 -0 -1
5 1 -3 2 -1 2 -1 2 -0 5 -4 -1 2 0 1 -1 1 -1 2 2 1 7 3 -0 -2 -2 1 11 8 18 14 12 -1 -3 1 -1 -0 -3 1 0 -1 2 4 -6 3 -4 -4 4 -5 3 1 1 0 -1
2 1 3 2 4 -3 1 -2 5 2 -1 3 1 -1 -1 2 -2 -6 -7 -3 -3 8 3 2 -6 -0 9 1 4 2 2 1 1 -0 2 -0 2 1 1 -1 1 -0 -3 -3 2 5 1 -1 -0 1 1 0 -0 1
-1 -2 -2 -1 -0 2 2 -4 3 -2 1 -1 3 -3 4 -3 1 5 1 -3 -0 0 2 2 2 3 5 3 2 -0 0 -0 -3 -0 -0 -3 1 -1 -1 -0 -0 -1 -2 -6 -4 -1 -1 1 1 2 -0 -1 -0 0
-4 0 -3 -2 -2 -3 -1 2 2 -1 -1 -3 3 -1 0 2 -1 0 4 -2 2 1 2 1 -0 2 -1 -0 2 -3 -1 -1 -0 -4 1 0 -1 1 -0 -0 -1 -1 -1 0 -1 -7 -2 -0 2 2 0 1 1 2
-2 -3 -1 2 -4 -0 -4 4 -2 2 0 -3 1 -1 1 0 3 1 1 2 0 1 0 -5 1 2 -2 -1 0 -1 -0 -0 1 -1 -0 -0 0 1 1 -1 -1 0 0 0 2 1 3 2 -2 -0 0 1 -0 -1
6 0 2 4 -4 -2 -0 3 -2 -0 3 -1 -0 -2 -4 1 0 3 -1 0 2 -1 -1 2 0 2 1 0 -4 -1 -1 0 -1 -0 0 -0 1 1 -1 0 1 -1 -2 -2 1 0 1 2 1 -0 1 2 0 1
4 1 -3 -1 -1 -2 4 -0 0 2 3 -0 2 0 2 0 2 3 -1 -1 0 -1 0 -3 -1 1 2 2 -1 -0 -1 -1 -0 0 -2 -1 0 1 -1 -2 0 -1 -1 0 3 2 3 2 2 2 2 2 1 0
-5 -1 -3 0 -4 1 2 1 2 1 3 -3 1 -1 0 -0 -1 -1 -1 -1 -1 1 -1 1 1 -0 -0 -3 0 -2 1 -2 1 1 -4 -0 -0 2 -1 0 0 -1 -1 0 1 1 1 -5 2 -0 -1 -1 4 3
-2 -5 3 -2 -4 1 -0 1 1 -2 -2 -1 2 -2 -0 -2 -1 -1 3 1 -1 -1 -1 -2 0 1 -0 -1 -0 -0 1 -0 -2 -4 -1 0 0 -1 -0 0 -0 1 1 1 2 -0 1 2 -1 -1 1 1 -1 -4
1 -2 6 0 -2 0 -4 -1 -1 -1 0 1 3 1 -1 1 -2 -1 -0 -1 -1 -2 2 1 0 -1 -1 -1 0 -2 1 -3 -5 -1 0 0 -0 -0 0 0 0 -0 1 2 1 1 2 2 1 0 -1 -0 0 2
2 -6 -2 4 -1 -2 -2 -0 -2 -0 1 1 -3 -0 0 0 -2 -1 1 1 0 -0 0 0 2 -4 -0 1 0 -1 -2 -1 -2 -0 -1 0 -0 0 0 1 0 -0 0 0 1 0 0 1 0 1 0 -0 2 -0
-7 0 0 2 1 -1 -1 -1 -1 1 -1 0 0 1 1 2 -1 -1 -0 -1 -1 0 1 1 1 2 -1 -0 -2 -2 0 0 -2 -2 -2 -2 -1 -1 -1 -2 -1 -1 -1 -1 -1 0 0 0 0 1 1 1 1 -1
4 2 4 3 3 -2 -0 -0 -1 -0 -2 -1 -0 -1 -0 0 -1 1 1 1 0 -1 -1 0 2 -1 -2 -2 -2 -1 -1 -1 -3 -2 -1 -2 -2 -1 -1 -0 -0 -0 -1 -2 -1 -1 -1 -1 -0 -0 1 1 1 1
3 5 -2 5 3 -4 -1 -0 -0 1 -2 1 0 -0 -0 -0 -0 -1 0 2 2 -0 1 1 -2 -3 -3 -3 -2 -1 -0 -1 -1 -0 -0 -0 -1 -0 -1 -1 -1 -1 -1 0 0 -1 -0 1 1 -1 -0 -1 0 1
3 10 17 -0 2 0 -2 -1 -0 -0 -0 0 1 -1 1 0 -0 0 -1 1 2 -1 -1 -4 -7 -2 -2 -1 -1 0 1 -0 -1 -0 -0 -0 -1 -1 0 -2 -2 -1 -2 -2 -3 -1 -1 -1 -1 -1 -1 -0 -1 -1
-4 6 4 7 4 -1 2 1 0 -0 -0 0 -1 1 -0 -0 -0 -1 3 2 -2 -7 -5 -4 -3 2 -0 -3 -3 -0 1 -0 -2 -2 -0 -1 -1 -1 -0 -1 -2 0 1 0 -1 -2 -1 -1 -2 -0 -1 -1 -0 0
3 5 6 2 1 4 0 -0 -1 0 -2 -1 -1 -0 -1 -0 0 -1 -1 -2 -5 -6 -2 1 1 -1 1 2 1 -1 -1 -0 -1 -2 -2 -3 -3 -2 -3 -2 -2 -3 -3 4 -0 -2 -4 -2 -1 -2 -0 0 0 1
1 -2 -1 -3 2 -1 3 0 1 1 0 0 0 -1 -1 -1 1 1 -1 -2 -8 -2 -2 2 2 1 2 1 -3 -3 -0 1 2 -1 -1 -1 0 2 -0 2 2 2 -1 -3 -1 -1 -1 -1 -1 -1 -1 -1 0 1
4 -3 2 0 1 -2 -0 0 -0 1 -0 -1 1 -1 -1 1 -0 1 -2 -6 -3 -0 3 1 -1 0 1 1 3 1 1 -1 -2 -2 3 -3 -2 -4 -0 2 0 4 1 -6 -2 -3 -1 -2 -1 -1 -2 -2 -0 -0
1 -1 -2 -4 -1 -3 -3 -1 -0 -3 -0 1 -1 0 -0 -1 0 -5 -4 -1 -1 -1 -3 -5 -4 -2 -3 -3 -0 -1 -1 0 1 -6 2 3 1 -1 -4 -6 -11 -0 5 -1 -3 -3 -2 0 -1 -1 -0 0 -1 -1
0 -1 -1 -1 2 1 1 2 1 -1 -0 -1 -0 0 -0 0 -3 -8 -1 -1 -0 0 0 2 1 0 -1 0 -1 -0 -1 -0 -1 -4 0 1 3 3 1 -5 -7 1 -1 1 1 -1 -4 -2 -1 0 -1 1 -0 -1
-6 0 -5 -3 1 3 -2 0 -0 -2 -1 -0 -1 -2 -2 -4 -7 -1 -1 0 1 1 -1 -2 -3 -3 -3 -1 1 2 -1 -0 0 0 0 -1 3 1 -2 -2 -1 1 1 -0 0 1 -1 -2 -1 -0 -1 -1 0 1
-0 -2 -2 0 0 1 -2 -4 -3 -3 -1 -3 -3 -1 -3 -3 -2 -1 -1 0 0 0 -0 -0 0 0 0 -0 -1 -1 1 1 1 -1 -2 -8 -1 3 -0 0 -0 -1 -1 -2 1 -1 -1 -1 -0 -0 -0 1 4 2
-1 1 -1 1 -0 -2 -7 0 2 0 -0 2 -0 0 -3 -7 -5 1 -2 -2 -1 1 3 1 -0 -1 -1 -0 1 1 2 2 1 -1 -4 -2 -1 2 4 3 0 0 0 -4 -4 -0 2 0 0 0 1 2 3 0
1 3 1 0 -2 -1 -1 -0 2 -1 4 1 1 -1 -4 -6 -12 -7 -3 -1 1 0 1 1 2 1 -1 0 2 4 1 -4 -2 -1 -1 -1 1 0 -1 -1 -2 -2 -1 0 -0 -1 1 1 0 -1 1 -0 -1 0
2 -2 -4 0 -1 -1 2 -1 -1 3 1 -0 -1 0 -0 -1 -5 -5 -8 2 2 1 3 -0 -2 1 2 2 1 -4 -2 1 2 2 1 -0 -1 -0 -1 -1 -0 -1 -2 -2 -1 -1 -0 -1 -1 -0 1 -0 5 -1
-1 1 2 -1 0 1 0 1 1 -1 -0 -0 -1 0 0 -0 -5 -2 -2 -0 -1 -2 -0 1 1 2 -0 -2 -2 -1 -0 1 0 -1 -1 -1 -2 -3 -3 0 1 -1 -0 -0 -1 0 1 1 0 1 0 4 3 1
Height
1492 1492 1491 1490 1489 1487 1486 1484 1482 1481 1481 1479 1475 1474 1473 1471 1471 1469 1467 1466 1465 1462 1453 1454 1454 1453 1452 1450 1449 1448 1452 1451 1454 1458 1459 1458 1458 1457 1458 1454 1460 1458 1462 1462 1466 1463 1465 1439 1442 1444 1440 1435 1435 1433
1488 1487 1487 1486 1485 1483 1482 1481 1479 1478 1478 1476 1474 1471 1470 1468 1467 1466 1464 1464 1463 1460 1453 1449 1448 1446 1447 1449 1450 1447 1444 1443 1444 1452 1455 1454 1455 1455 1456 1457 1453 1455 1452 1456 1457 1449 1438 1438 1437 1436 1435 1434 1432 1430
1485 1484 1483 1481 1481 1480 1479 1477 1476 1474 1474 1473 1471 1469 1467 1465 1463 1463 1461 1459 1458 1453 1444 1439 1436 1437 1437 1438 1445 1449 1442 1441 1441 1442 1446 1449 1450 1450 1455 1455 1451 1447 1445 1447 1447 1435 1435 1436 1434 1432 1432 1431 1429 1428
1481 1480 1479 1478 1478 1477 1476 1475 1474 1471 1469 1467 1467 1465 1463 1461 1459 1458 1456 1455 1454 1452 1444 1433 1430 1429 1431 1432 1434 1438 1438 1440 1441 1442 1443 1446 1448 1446 1447 1447 1448 1446 1445 1443 1442 1436 1433 1430 1430 1430 1430 1428 1426 1425
1477 1476 1475 1474 1474 1474 1473 1472 1470 1468 1466 1464 1463 1461 1459 1456 1454 1452 1450 1449 1448 1450 1440 1428 1421 1415 1417 1421 1427 1431 1435 1437 1438 1441 1442 1444 1443 1445 1445 1446 1445 1439 1440 1442 1440 1436 1436 1432 1431 1430 1427 1425 1424 1423
1472 1471 1471 1471 1470 1470 1469 1468 1467 1465 1462 1461 1460 1457 1454 1451 1450 1449 1445 1442 1440 1442 1437 1430 1414 1406 1408 1410 1418 1423 1428 1432 1433 1436 1439 1439 1439 1442 1444 1441 1432 1432 1434 1436 1436 1434 1431 1428 1427 1426 1423 1422 1421 1420
1467 1467 1468 1467 1467 1466 1466 1464 1463 1461 1459 1458 1455 1451 1447 1445 1446 1447 1445 1444 1441 1440 1439 1428 1411 1401 1401 1408 1414 1419 1424 1426 1430 1435 1436 1436 1437 1440 1439 1436 1431 1432 1431 1431 1431 1429 1424 1422 1422 1420 1419 1419 1418 1418
1463 1463 1463 1464 1463 1463 1463 1462 1461 1458 1456 1453 1449 1445 1445 1444 1444 1444 1442 1440 1440 1440 1436 1428 1410 1401 1402 1403 1407 1413 1420 1426 1430 1432 1434 1434 1436 1437 1434 1431 1431 1430 1427 1427 1426 1426 1424 1420 1417 1416 1416 1416 1416 1416
1459 1459 1460 1461 1461 1460 1460 1459 1457 1455 1453 1449 1445 1444 1444 1444 1443 1442 1440 1438 1438 1441 1434 1426 1418 1398 1404 1405 1409 1415 1420 1426 1430 1428 1430 1432 1432 1430 1429 1430 1428 1428 1428 1425 1421 1419 1417 1415 1414 1413 1413 1413 1413 1413
1456 1456 1457 1458 1458 1458 1458 1457 1455 1452 1450 1446 1444 1444 1443 1441 1441 1441 1438 1438 1436 1434 1432 1423 1414 1403 1404 1407 1414 1419 1422 1426 1428 1426 1428 1429 1425 1426 1427 1427 1426 1424 1423 1421 1417 1414 1412 1410 1410 1410 1410 1410 1410 1411
1453 1454 1455 1455 1456 1456 1456 1455 1453 1450 1448 1446 1444 1443 1441 1440 1440 1439 1436 1435 1431 1429 1424 1416 1411 1406 1409 1411 1412 1418 1422 1423 1423 1424 1424 1424 1420 1423 1424 1424 1423 1421 1419 1417 1415 1412 1409 1407 1405 1406 1406 1406 1407 1408
1450 1451 1452 1453 1454 1454 1454 1453 1452 1450 1448 1446 1444 1442 1441 1440 1439 1439 1432 1430 1427 1420 1418 1415 1412 1410 1410 1412 1415 1419 1421 1423 1421 1423 1423 1420 1420 1422 1422 1421 1420 1417 1415 1413 1411 1408 1405 1403 1401 1401 1402 1402 1402 1404
1447 1449 1450 1451 1452 1452 1452 1452 1450 1448 1445 1443 1442 1442 1440 1438 1438 1434 1429 1423 1421 1422 1420 1417 1414 1412 1411 1413 1416 1418 1418 1422 1423 1424 1418 1416 1419 1420 1420 1419 1417 1415 1413 1410 1408 1405 1403 1400 1399 1399 1399 1398 1399 1401
1444 1446 1447 1449 1450 1450 1450 1450 1448 1446 1444 1443 1443 1440 1438 1434 1432 1430 1427 1427 1425 1422 1420 1418 1415 1414 1414 1415 1416 1416 1421 1421 1422 1421 1413 1417 1418 1418 1419 1417 1415 1413 1412 1409 1407 1403 1400 1399 1397 1397 1398 1397 1398 1399
1442 1444 1445 1447 1448 1448 1448 1447 1446 1445 1445 1444 1442 1440 1436 1430 1428 1428 1427 1425 1425 1423 1421 1419 1417 1417 1416 1416 1417 1420 1421 1419 1415 1411 1414 1415 1416 1418 1418 1416 1414 1412 1410 1408 1406 1404 1401 1399 1399 1398 1397 1397 1397 1397
1440 1442 1443 1445 1446 1446 1446 1446 1445 1445 1443 1441 1438 1434 1430 1430 1428 1427 1426 1425 1424 1423 1422 1421 1419 1418 1415 1417 1418 1416 1417 1412 1413 1413 1413 1414 1416 1417 1417 1416 1414 1412 1410 1407 1405 1403 1402 1399 1398 1398 1398 1397 1397 1398
1437 1438 1441 1442 1443 1444 1444 1444 1444 1443 1440 1436 1431 1429 1430 1429 1427 1427 1427 1426 1425 1424 1421 1420 1418 1414 1418 1417 1416 1412 1410 1411 1411 1412 1414 1415 1416 1416 1416 1415 1413 1412 1410 1407 1405 1403 1401 1399 1398 1397 1397 1397 1398 1397
1436 1437 1438 1438 1440 1441 1442 1443 1443 1440 1436 1430 1429 1427 1427 1426 1425 1426 1425 1425 1425 1423 1422 1419 1419 1416 1412 1410 1411 1408 1407 1409 1411 1412 1414 1415 1415 1415 1415 1414 1413 1411 1409 1407 1405 1403 1401 1400 1398 1397 1396 1396 1396 1397
1434 1435 1436 1436 1437 1440 1441 1441 1441 1437 1430 1428 1426 1425 1425 1423 1423 1423 1424 1423 1423 1423 1422 1420 1417 1412 1408 1404 1404 1404 1405 1407 1409 1411 1413 1413 1413 1413 1413 1412 1411 1410 1408 1406 1404 1402 1401 1399 1398 1396 1395 1394 1394 1394
1432 1433 1434 1435 1436 1438 1439 1438 1438 1434 1429 1426 1424 1423 1422 1421 1420 1420 1420 1421 1421 1422 1419 1416 1407 1403 1402 1400 1401 1402 1403 1405 1407 1408 1410 1410 1411 1411 1411 1410 1409 1407 1406 1404 1403 1401 1400 1399 1397 1395 1394 1393 1392 1392
1429 1431 1431 1433 1435 1437 1436 1434 1433 1430 1427 1425 1422 1422 1419 1417 1417 1416 1416 1417 1419 1414 1408 1400 1397 1399 1399 1399 1400 1400 1402 1403 1405 1406 1407 1408 1409 1409 1409 1407 1406 1405 1403 1402 1400 1399 1398 1396 1394 1393 1392 1391 1391 1391
1426 1428 1429 1431 1433 1433 1431 1430 1429 1428 1427 1424 1423 1421 1418 1416 1413 1413 1412 1413 1406 1396 1393 1391 1392 1394 1395 1396 1397 1399 1400 1401 1402 1403 1405 1405 1406 1406 1406 1405 1403 1402 1401 1399 1397 1395 1394 1393 1392 1391 1389 1389 1388 1388
1425 1427 1428 1429 1430 1429 1426 1425 1426 1425 1425 1422 1421 1420 1415 1413 1411 1412 1410 1402 1391 1384 1385 1386 1387 1389 1391 1393 1394 1395 1397 1398 1399 1400 1401 1402 1403 1403 1402 1401 1399 1397 1395 1394 1393 1391 1390 1389 1387 1386 1386 1385 1385 1385
1422 1424 1423 1422 1421 1420 1421 1421 1422 1422 1421 1421 1421 1418 1414 1411 1411 1410 1405 1389 1378 1378 1378 1378 1381 1384 1386 1387 1389 1391 1393 1395 1396 1397 1397 1398 1398 1398 1397 1396 1394 1392 1391 1389 1388 1387 1384 1383 1382 1382 1381 1381 1381 1381
1419 1418 1418 1416 1415 1417 1419 1420 1419 1421 1421 1417 1417 1413 1410 1410 1411 1409 1396 1375 1370 1369 1371 1373 1376 1379 1382 1384 1386 1388 1390 1391 1392 1393 1394 1394 1394 1393 1392 1391 1390 1388 1385 1384 1383 1381 1380 1379 1378 1378 1377 1376 1377 1377
1411 1406 1407 1404 1407 1409 1409 1415 1416 1414 1413 1413 1411 1409 1410 1411 1412 1398 1379 1368 1366 1366 1366 1368 1371 1375 1378 1380 1383 1385 1387 1388 1389 1389 1389 1389 1389 1387 1386 1384 1381 1379 1378 1377 1376 1375 1374 1373 1372 1372 1372 1372 1372 1373
1403 1398 1397 1399 1399 1399 1402 1403 1403 1405 1407 1405 1404 1409 1411 1411 1401 1377 1369 1368 1367 1366 1367 1369 1372 1375 1378 1380 1382 1383 1383 1384 1384 1384 1383 1382 1381 1379 1378 1377 1374 1372 1369 1367 1366 1366 1366 1366 1365 1365 1365 1365 1366 1367
1388 1387 1390 1391 1395 1394 1396 1397 1398 1398 1395 1395 1399 1405 1401 1394 1380 1371 1369 1368 1367 1368 1369 1370 1372 1374 1376 1377 1378 1378 1378 1378 1377 1376 1375 1374 1373 1371 1370 1368 1366 1363 1361 1359 1357 1357 1357 1358 1357 1358 1358 1358 1359 1361
1379 1378 1383 1388 1391 1390 1387 1386 1383 1381 1382 1382 1387 1388 1382 1376 1372 1370 1369 1368 1368 1368 1368 1369 1370 1371 1372 1373 1372 1372 1371 1371 1370 1368 1366 1365 1364 1363 1361 1359 1357 1355 1353 1351 1349 1349 1349 1350 1351 1351 1352 1352 1353 1355
1367 1371 1376 1379 1383 1381 1373 1375 1372 1371 1374 1374 1374 1374 1372 1370 1368 1368 1367 1367 1366 1366 1366 1366 1366 1366 1367 1367 1366 1365 1364 1363 1362 1362 1360 1358 1356 1354 1352 1350 1348 1346 1344 1341 1340 1342 1343 1343 1343 1344 1345 1346 1348 1349
1359 1364 1366 1368 1368 1367 1367 1368 1368 1369 1369 1369 1369 1370 1368 1366 1362 1360 1359 1359 1359 1359 1358 1359 1359 1360 1360 1360 1359 1358 1358 1357 1356 1354 1352 1349 1347 1346 1344 1342 1340 1338 1336 1335 1334 1335 1336 1336 1337 1338 1339 1340 1343 1345
1355 1357 1358 1362 1363 1363 1364 1365 1367 1367 1365 1365 1365 1364 1364 1363 1359 1354 1349 1348 1347 1348 1349 1350 1352 1353 1354 1354 1354 1353 1352 1351 1349 1347 1345 1343 1340 1338 1336 1335 1334 1333 1332 1331 1330 1330 1330 1331 1332 1333 1334 1336 1339 1341
1352 1352 1353 1356 1360 1361 1362 1364 1364 1364 1363 1361 1359 1359 1358 1358 1354 1347 1343 1342 1344 1344 1345 1346 1348 1349 1350 1350 1349 1348 1347 1345 1343 1341 1339 1336 1333 1331 1330 1330 1329 1329 1328 1327 1327 1326 1327 1327 1328 1330 1331 1334 1336 1338